TimeMDT,TemperatureF,Dew PointF,Humidity,Sea Level PressureIn,VisibilityMPH,Wind Direction,Wind SpeedMPH,Gust SpeedMPH,PrecipitationIn,Events,Conditions,WindDirDegrees,DateUTC
12:53 AM,64.9,46.0,50,29.80,10.0,SSE,3.5,-,N/A,,Clear,160,2013-07-21 06:53:00
1:53 AM,63.0,45.0,52,29.77,10.0,Calm,Calm,-,N/A,,Clear,0,2013-07-21 07:53:00
2:53 AM,59.0,46.0,62,29.76,10.0,NW,3.5,-,N/A,,Clear,310,2013-07-21 08:53:00
3:53 AM,60.1,46.0,60,29.75,10.0,Calm,Calm,-,N/A,,Clear,0,2013-07-21 09:53:00
4:53 AM,53.1,46.0,77,29.75,10.0,Calm,Calm,-,N/A,,Clear,0,2013-07-21 10:53:00
5:53 AM,54.0,45.0,72,29.75,10.0,Calm,Calm,-,N/A,,Clear,0,2013-07-21 11:53:00
6:53 AM,60.1,48.0,64,29.75,10.0,Calm,Calm,-,N/A,,Clear,0,2013-07-21 12:53:00
7:53 AM,64.9,48.9,56,29.75,10.0,Calm,Calm,-,N/A,,Clear,0,2013-07-21 13:53:00
8:53 AM,73.9,48.9,41,29.75,10.0,Calm,Calm,-,N/A,,Clear,0,2013-07-21 14:53:00
9:53 AM,81.0,48.9,33,29.75,10.0,Calm,Calm,-,N/A,,Clear,0,2013-07-21 15:53:00
10:53 AM,86.0,45.0,24,29.75,10.0,NNW,4.6,-,N/A,,Clear,340,2013-07-21 16:53:00
11:53 AM,90.0,42.1,19,29.75,10.0,NNW,9.2,-,N/A,,Clear,340,2013-07-21 17:53:00
12:53 PM,88.0,43.0,21,29.74,10.0,WNW,15.0,23.0,N/A,,Clear,300,2013-07-21 18:53:00
1:53 PM,91.0,41.0,17,29.73,10.0,WNW,12.7,18.4,N/A,,Clear,290,2013-07-21 19:53:00
2:53 PM,91.9,39.0,16,29.73,10.0,WNW,12.7,-,N/A,,Clear,300,2013-07-21 20:53:00
3:53 PM,91.9,39.0,16,29.73,10.0,NNW,12.7,20.7,N/A,,Clear,340,2013-07-21 21:53:00
4:53 PM,91.9,39.0,16,29.73,10.0,North,12.7,17.3,N/A,,Clear,350,2013-07-21 22:53:00
5:53 PM,91.0,36.0,14,29.73,10.0,North,8.1,-,N/A,,Clear,350,2013-07-21 23:53:00
6:53 PM,89.1,35.1,15,29.72,10.0,NNW,11.5,-,N/A,,Clear,340,2013-07-22 00:53:00
7:53 PM,82.9,35.1,18,29.74,10.0,NNW,8.1,-,N/A,,Clear,340,2013-07-22 01:53:00
8:53 PM,73.9,36.0,25,29.77,10.0,NW,9.2,-,N/A,,Clear,310,2013-07-22 02:53:00
9:53 PM,71.1,37.0,29,29.81,10.0,NW,6.9,-,N/A,,Clear,310,2013-07-22 03:53:00
10:53 PM,70.0,39.0,32,29.83,10.0,WNW,5.8,-,N/A,,Clear,300,2013-07-22 04:53:00
11:53 PM,60.1,44.1,55,29.86,10.0,SSW,4.6,-,N/A,,Clear,210,2013-07-22 05:53:00